Location: Bucknum
(43.0208°N, 106.6262°W)
Time: 18:07:05
(UTC+00:00)

X-37B - Visible Passes

Search period start: 25 January 2022 00:00
Search period end: 04 February 2022 00:00
Orbit: 334 x 337 km, 45.0° (Epoch: 11 January)

Date Brightness Start Highest point End Pass type
(mag) Time Alt. Az. Time Alt. Az. Time Alt. Az.
26 Jan 2.8 02:06:43 10° SSW 02:07:37 16° SSW 02:07:37 16° SSW visible
27 Jan 2.8 00:53:30 10° SSE 00:54:26 11° SE 00:55:23 10° ESE visible
27 Jan 3.2 02:26:41 10° WSW 02:27:26 16° SW 02:27:26 16° SW visible
28 Jan 1.7 01:12:10 10° SSW 01:14:36 26° SSE 01:15:56 18° ESE visible
28 Jan 4.0 02:47:05 10° W 02:47:10 11° W 02:47:10 11° W visible
29 Jan 0.5 01:32:07 10° WSW 01:34:54 58° SSE 01:35:38 41° ESE visible
30 Jan 0.3 01:52:30 10° W 01:55:16 74° NNW 01:55:16 74° NNW visible
31 Jan 2.0 02:13:04 10° W 02:14:53 33° WNW 02:14:53 33° WNW visible
01 Feb 0.3 00:57:56 10° W 01:00:46 76° NNW 01:03:15 13° ENE visible
01 Feb 3.2 02:33:36 10° WNW 02:34:29 18° WNW 02:34:29 18° WNW visible
02 Feb 0.6 01:18:29 10° W 01:21:17 55° N 01:22:51 22° ENE visible
03 Feb 0.5 01:39:02 10° WNW 01:41:50 55° N 01:42:28 42° NE visible
